Saint Simons Island, GA

3:19 PM EST on January 18, 2018 (GMT -0500)
McKinnon

Weather History for KSSI - January, 2012

Change the Weather History Date:

Tuesday, January 3, 2012

  Actual Average Record
Temperature  
Mean Temperature 38 °F 51 °F  
Max Temperature 44 °F 60 °F 79 °F (1952)
Min Temperature 31 °F 43 °F 21 °F (1979)
Degree Days  
Heating Degree Days 27 14  
Month to date heating degree days 41 42  
Since 1 July heating degree days 388 573  
Cooling Degree Days 0 0  
Month to date cooling degree days 0 0  
Year to date cooling degree days 0 0  
Moisture  
Dew Point 10 °F    
Average Humidity 33    
Maximum Humidity 43    
Minimum Humidity 23    
Precipitation  
Precipitation 0.00 in 0.09 in 2.50 in (1977)
Month to date precipitation 0.00 0.26  
Year to date precipitation 0.00 0.26  
Snow  
Snow 0.00 in - 0.00 in ()
Month to date snowfall 0.0  
Since 1 July snowfall 0.0  
Snow Depth 0.00 in    
Sea Level Pressure  
Sea Level Pressure 30.33 in    
Wind  
Wind Speed 10 mph (NW)    
Max Wind Speed 22 mph    
Max Gust Speed 35 mph    
Visibility 10 miles    
Events      
T = Trace of Precipitation, MM = Missing Value Source: NWS Daily Summary

Daily Weather History Graph

Daily Weather History Graph

Search for Another Location

Airport or City:

Trip Planner

Search our weather history database for the weather conditions in past years. The results will help you decide how hot, cold, wet, or windy it might be!

Date:

Astronomy

Jan. 03, 2012 Rise Set
Actual Time 7:24 AM EST 5:35 PM EST
Civil Twilight 6:57 AM EST 6:02 PM EST
Nautical Twilight 6:27 AM EST 6:32 PM EST
Astronomical Twilight 5:58 AM EST 7:01 PM EST
Moon 1:16 PM EST (1/3) 2:20 AM EST (1/3)
Length of Visible Light 11h 04m
Length of Day
10h 11m
Waxing Gibbous, 72% of the Moon is Illuminated
Jan 3
Waxing Gibbous
Jan 9
Full
Jan 16
Last Quarter
Jan 23
New
Jan 30
First Quarter

Hourly Weather History & Observations

Time (EST) Temp. Windchill Dew Point Humidity Pressure Visibility Wind Dir Wind Speed Gust Speed Precip Events Conditions
12:53 AM 43.0 °F 36.0 °F 19.0 °F 38% 30.14 in 10.0 mi WNW 13.8 mph 28.8 mph N/A   Clear
1:53 AM 42.1 °F 35.2 °F 10.9 °F 28% 30.17 in 10.0 mi WNW 12.7 mph 23.0 mph N/A   Scattered Clouds
2:53 AM 37.9 °F 28.5 °F 10.0 °F 32% 30.21 in 10.0 mi NW 17.3 mph 26.5 mph N/A   Clear
3:53 AM 36.0 °F 26.3 °F 6.1 °F 29% 30.25 in 10.0 mi NW 16.1 mph 29.9 mph N/A   Clear
4:53 AM 34.0 °F 24.6 °F 7.0 °F 32% 30.27 in 10.0 mi NW 13.8 mph 20.7 mph N/A   Clear
5:53 AM 33.1 °F 24.9 °F 9.0 °F 37% 30.29 in 10.0 mi NW 10.4 mph 18.4 mph N/A   Clear
6:53 AM 32.0 °F 23.0 °F 10.0 °F 40% 30.32 in 10.0 mi WNW 11.5 mph 19.6 mph N/A   Clear
7:53 AM 32.0 °F 25.6 °F 10.9 °F 42% 30.35 in 10.0 mi WNW 6.9 mph - N/A   Clear
8:53 AM 33.1 °F 25.5 °F 10.9 °F 40% 30.38 in 10.0 mi NW 9.2 mph 16.1 mph N/A   Clear
9:53 AM 35.1 °F 26.4 °F 8.1 °F 33% 30.40 in 10.0 mi NW 12.7 mph 21.9 mph N/A   Clear
10:53 AM 36.0 °F 27.1 °F 7.0 °F 30% 30.39 in 10.0 mi NNW 13.8 mph 20.7 mph N/A   Clear
11:53 AM 37.9 °F 30.0 °F 7.0 °F 28% 30.37 in 10.0 mi NNW 12.7 mph 18.4 mph N/A   Clear
12:53 PM 39.0 °F 32.3 °F 7.0 °F 27% 30.34 in 10.0 mi NW 10.4 mph 21.9 mph N/A   Clear
1:53 PM 39.9 °F 32.5 °F 6.1 °F 25% 30.32 in 10.0 mi NW 12.7 mph 21.9 mph N/A   Clear
2:53 PM 41.0 °F 33.5 °F 7.0 °F 25% 30.30 in 10.0 mi WNW 13.8 mph 18.4 mph N/A   Clear
3:53 PM 41.0 °F 33.5 °F 8.1 °F 26% 30.31 in 10.0 mi West 13.8 mph 18.4 mph N/A   Clear
4:53 PM 41.0 °F 35.2 °F 7.0 °F 25% 30.32 in 10.0 mi WNW 9.2 mph 17.3 mph N/A   Clear
5:53 PM 39.0 °F 34.8 °F 9.0 °F 29% 30.35 in 10.0 mi WNW 5.8 mph - N/A   Clear
6:53 PM 37.9 °F 33.5 °F 12.0 °F 35% 30.36 in 10.0 mi WNW 5.8 mph - N/A   Clear
7:53 PM 37.0 °F 33.3 °F 12.0 °F 36% 30.38 in 10.0 mi WNW 4.6 mph - N/A   Clear
8:53 PM 36.0 °F 32.1 °F 12.0 °F 37% 30.40 in 10.0 mi WNW 4.6 mph - N/A   Clear
9:53 PM 35.1 °F 32.2 °F 14.0 °F 42% 30.40 in 10.0 mi WNW 3.5 mph - N/A   Clear
10:53 PM 33.1 °F 30.0 °F 14.0 °F 46% 30.41 in 10.0 mi WNW 3.5 mph - N/A   Clear
11:53 PM 33.1 °F 30.0 °F 12.9 °F 43% 30.40 in 10.0 mi NW 3.5 mph - N/A   Clear